Location: North Fontana
(34.1395°N, 117.4623°W)
Time: 16:06:18
(UTC+00:00)

YAOGAN 11 - Pass Details

Date: 13 April 2024
Orbit: 606 x 659 km, 98.4° (Epoch: 20 May)

Event Time Altitude Azimuth Distance (km) Brightness Sun altitude
Rises 12:37:17 0° 169° (S) 2,927 7.5 -9.5°
Reaches altitude 10° 12:39:27 10° 170° (S) 2,030 6.6 -9.0°
Maximum altitude 12:43:53 79° 257° (WSW) 665 4.1 -8.2°
Drops below altitude 10° 12:48:25 10° 345° (NNW) 2,070 6.8 -7.3°
Sets 12:50:39 0° 346° (NNW) 2,990 7.6 -6.8°
